Three Rivers, MI

3:31 AM EST on February 27, 2017 (GMT -0500)
Three Rivers Municipal-Haines

Weather History for KHAI - June, 2014

Change the Weather History Date:

Tuesday, June 3, 2014

  Actual Average Record
Temperature  
Mean Temperature 67 °F -  
Max Temperature 75 °F 75 °F 89 °F (1963)
Min Temperature 59 °F 50 °F 37 °F (1977)
Cooling Degree Days 2    
Growing Degree Days 17 (Base 50)    
Moisture  
Dew Point 59 °F    
Average Humidity 68    
Maximum Humidity 96    
Minimum Humidity 43    
Precipitation  
Precipitation 0.00 in - - ()
Sea Level Pressure  
Sea Level Pressure 29.91 in    
Wind  
Wind Speed 11 mph (West)    
Max Wind Speed 22 mph    
Max Gust Speed 30 mph    
Visibility 10 miles    
Events      
Averages and records for this station are not official NWS values.
T = Trace of Precipitation, MM = Missing Value Source: NWS Daily Summary

Daily Weather History Graph

Daily Weather History Graph

Search for Another Location

Airport or City:

Trip Planner

Search our weather history database for the weather conditions in past years. The results will help you decide how hot, cold, wet, or windy it might be!

Date:

Astronomy

Jun. 03, 2014 Rise Set
Actual Time 6:08 AM EDT 9:12 PM EDT
Civil Twilight 5:34 AM EDT 9:46 PM EDT
Nautical Twilight 4:51 AM EDT 10:29 PM EDT
Astronomical Twilight 4:00 AM EDT 11:21 PM EDT
Moon 11:34 AM EDT (6/3) 12:37 AM EDT (6/3)
Length of Visible Light 16h 11m
Length of Day
15h 04m
Waxing Crescent, 30% of the Moon is Illuminated
Jun 3
Waxing Crescent
Jun 5
First Quarter
Jun 13
Full
Jun 19
Last Quarter
Jun 27
New

Hourly Weather History & Observations

Time (EDT) Temp. Dew Point Humidity Pressure Visibility Wind Dir Wind Speed Gust Speed Precip Events Conditions
12:15 AM 71.6 °F 69.4 °F 93% 29.87 in 10.0 mi SW 13.8 mph 18.4 mph N/A   Overcast
12:34 AM 71.6 °F 69.1 °F 92% 29.87 in 10.0 mi SW 10.4 mph - N/A   Overcast
12:55 AM 71.4 °F 69.1 °F 92% 29.87 in 10.0 mi SW 8.1 mph - N/A   Scattered Clouds
1:15 AM 71.1 °F 69.1 °F 93% 29.88 in 10.0 mi SW 8.1 mph - N/A   Clear
1:35 AM 70.7 °F 68.9 °F 94% 29.87 in 10.0 mi SW 8.1 mph - N/A   Clear
1:55 AM 70.7 °F 68.9 °F 94% 29.87 in 10.0 mi SW 8.1 mph - N/A   Clear
2:15 AM 70.5 °F 68.9 °F 95% 29.87 in 10.0 mi SW 8.1 mph 16.1 mph N/A   Scattered Clouds
2:35 AM 70.2 °F 68.4 °F 94% 29.86 in 10.0 mi SW 9.2 mph - N/A   Clear
2:55 AM 70.0 °F 68.4 °F 95% 29.86 in 10.0 mi SSW 9.2 mph - N/A   Clear
3:15 AM 70.0 °F 68.5 °F 95% 29.86 in 10.0 mi SSW 10.4 mph - N/A   Scattered Clouds
3:35 AM 70.2 °F 68.9 °F 96% 29.85 in 10.0 mi SW 10.4 mph - N/A   Scattered Clouds
3:54 AM 70.0 °F 68.5 °F 95% 29.85 in 7.0 mi SW 10.4 mph - N/A   Scattered Clouds
4:15 AM 69.8 °F 68.4 °F 95% 29.85 in 7.0 mi SSW 11.5 mph - N/A   Clear
4:35 AM 69.8 °F 68.4 °F 95% 29.85 in 7.0 mi SW 9.2 mph - N/A   Clear
4:54 AM 69.8 °F 68.4 °F 95% 29.86 in 10.0 mi SW 6.9 mph - N/A   Clear
5:15 AM 70.0 °F 68.0 °F 93% 29.86 in 10.0 mi SW 5.8 mph - N/A   Scattered Clouds
5:34 AM 70.0 °F 67.6 °F 92% 29.86 in 10.0 mi SW 5.8 mph - N/A   Scattered Clouds
5:55 AM 69.8 °F 67.3 °F 92% 29.86 in 10.0 mi SW 5.8 mph - N/A   Scattered Clouds
6:15 AM 69.4 °F 67.3 °F 93% 29.87 in 10.0 mi SW 6.9 mph - N/A   Clear
6:34 AM 69.4 °F 67.3 °F 93% 29.87 in 10.0 mi SW 6.9 mph - N/A   Clear
6:55 AM 69.8 °F 67.1 °F 91% 29.88 in 10.0 mi SW 6.9 mph - N/A   Clear
7:15 AM 70.2 °F 67.1 °F 90% 29.88 in 10.0 mi SW 6.9 mph - N/A   Clear
7:35 AM 71.1 °F 66.4 °F 85% 29.89 in 10.0 mi WSW 6.9 mph - N/A   Clear
7:55 AM 71.8 °F 66.2 °F 83% 29.89 in 10.0 mi WSW 6.9 mph - N/A   Clear
8:15 AM 72.5 °F 66.2 °F 81% 29.89 in 10.0 mi WSW 8.1 mph - N/A   Clear
8:35 AM 73.0 °F 64.8 °F 75% 29.89 in 10.0 mi West 9.2 mph - N/A   Clear
8:55 AM 73.6 °F 63.7 °F 71% 29.89 in 10.0 mi West 11.5 mph 20.7 mph N/A   Clear
9:14 AM 74.3 °F 63.1 °F 68% 29.90 in 10.0 mi West 16.1 mph 20.7 mph N/A   Clear
9:35 AM 75.2 °F 61.9 °F 63% 29.90 in 10.0 mi West 18.4 mph 26.5 mph N/A   Clear
9:55 AM 74.7 °F 59.4 °F 59% 29.90 in 10.0 mi West 18.4 mph 26.5 mph N/A   Clear
10:14 AM 75.2 °F 59.2 °F 57% 29.90 in 10.0 mi West 20.7 mph 26.5 mph N/A   Clear
10:35 AM 75.6 °F 58.1 °F 55% 29.90 in 10.0 mi WNW 21.9 mph 28.8 mph N/A   Clear
10:55 AM 75.4 °F 55.8 °F 50% 29.91 in 10.0 mi West 20.7 mph 27.6 mph N/A   Clear
11:15 AM 75.2 °F 55.0 °F 49% 29.92 in 10.0 mi West 21.9 mph 27.6 mph N/A   Clear
11:35 AM 75.4 °F 55.4 °F 50% 29.92 in 10.0 mi West 17.3 mph 26.5 mph N/A   Clear
11:55 AM 75.6 °F 54.5 °F 48% 29.93 in 10.0 mi West 20.7 mph 26.5 mph N/A   Clear
12:15 PM 75.6 °F 54.0 °F 47% 29.94 in 10.0 mi WNW 21.9 mph 29.9 mph N/A   Clear
12:35 PM 75.4 °F 54.1 °F 48% 29.94 in 10.0 mi West 20.7 mph 26.5 mph N/A   Clear
12:55 PM 75.6 °F 55.4 °F 49% 29.95 in 10.0 mi West 19.6 mph 25.3 mph N/A   Clear
1:15 PM 75.4 °F 54.7 °F 48% 29.95 in 10.0 mi WNW 18.4 mph 25.3 mph N/A   Clear
1:35 PM 74.5 °F 54.3 °F 49% 29.95 in 10.0 mi WNW 16.1 mph 26.5 mph N/A   Clear
1:54 PM 74.8 °F 53.6 °F 47% 29.95 in 10.0 mi NW 18.4 mph 26.5 mph N/A   Clear
2:15 PM 74.3 °F 54.7 °F 50% 29.95 in 10.0 mi WNW 20.7 mph 27.6 mph N/A   Clear
2:35 PM 74.8 °F 54.7 °F 49% 29.95 in 10.0 mi West 19.6 mph 27.6 mph N/A   Clear
2:54 PM 74.5 °F 55.2 °F 51% 29.95 in 10.0 mi WNW 16.1 mph 26.5 mph N/A   Clear
3:15 PM 73.8 °F 54.0 °F 50% 29.95 in 10.0 mi WNW 18.4 mph 25.3 mph N/A   Clear
3:54 PM 74.8 °F 54.3 °F 49% 29.95 in 10.0 mi WNW 15.0 mph 19.6 mph N/A   Clear
4:15 PM 74.3 °F 52.7 °F 47% 29.95 in 10.0 mi WNW 11.5 mph 19.6 mph N/A   Clear
4:35 PM 73.6 °F 51.4 °F 46% 29.95 in 10.0 mi NW 12.7 mph 18.4 mph N/A   Clear
4:55 PM 73.9 °F 52.0 °F 46% 29.95 in 10.0 mi WNW 12.7 mph - N/A   Clear
5:15 PM 74.3 °F 52.0 °F 46% 29.95 in 10.0 mi West 9.2 mph 17.3 mph N/A   Clear
5:35 PM 74.3 °F 50.5 °F 43% 29.95 in 10.0 mi WNW 10.4 mph 16.1 mph N/A   Clear
5:55 PM 73.4 °F 51.6 °F 46% 29.95 in 10.0 mi NW 9.2 mph - N/A   Clear
6:15 PM 73.8 °F 50.9 °F 45% 29.95 in 10.0 mi NW 12.7 mph - N/A   Clear
6:34 PM 73.0 °F 50.7 °F 45% 29.94 in 10.0 mi NW 9.2 mph - N/A   Clear
6:55 PM 72.5 °F 49.8 °F 45% 29.95 in 10.0 mi WNW 8.1 mph - N/A   Clear
7:15 PM 72.5 °F 49.5 °F 44% 29.94 in 10.0 mi NNW 6.9 mph - N/A   Clear
7:34 PM 72.5 °F 49.1 °F 44% 29.94 in 10.0 mi NW 5.8 mph - N/A   Clear
7:55 PM 72.0 °F 49.6 °F 45% 29.94 in 10.0 mi NW 5.8 mph - N/A   Clear
8:15 PM 71.8 °F 50.5 °F 47% 29.94 in 10.0 mi NW 3.5 mph - N/A   Clear
8:34 PM 71.6 °F 50.4 °F 47% 29.94 in 10.0 mi Calm Calm - N/A   Clear
8:55 PM 69.6 °F 51.4 °F 52% 29.94 in 10.0 mi Calm Calm - N/A   Clear
9:14 PM 65.3 °F 54.0 °F 67% 29.94 in 10.0 mi Calm Calm - N/A   Clear
9:35 PM 65.1 °F 53.8 °F 67% 29.94 in 10.0 mi Calm Calm - N/A   Clear
9:55 PM 63.7 °F 53.6 °F 70% 29.94 in 10.0 mi Calm Calm - N/A   Clear
10:15 PM 63.3 °F 53.8 °F 71% 29.94 in 10.0 mi Calm Calm - N/A   Clear
10:35 PM 61.2 °F 55.4 °F 81% 29.93 in 10.0 mi Calm Calm - N/A   Clear
11:15 PM 59.9 °F 56.5 °F 88% 29.96 in 10.0 mi Calm Calm - N/A   Clear
11:35 PM 60.8 °F 56.1 °F 85% 29.95 in 10.0 mi Calm Calm - N/A   Clear
11:54 PM 59.2 °F 56.1 °F 90% 29.94 in 10.0 mi Calm Calm - N/A   Clear